Weather in Rodniki

Russia / Perm Krai     59°33′24″N   56°44′18″E
temp.,
°C
wind,
m/s
gust,
m/s
humid.,
%
clouds,
%
prec.,
mm/h
press.,
hPa
HPBL,
m
27 february, sat
sat2723:00−20se3109339 0.0 1020237
02:00−20se310910 0.0 1018254
05:00−21se38910 0.0 1017190
08:00−20ese310890 0.0 1015227
11:00−15ese49750 0.0 1014409
14:00−11ese48780 0.0 1012602
17:00−12ese48810 0.0 1012622
20:00−19ese311890 0.0 1013411
28 february, sun
sun2823:00−22e26910 0.0 1014120
02:00−23e36910 0.0 1014151
05:00−24ene24920 0.0 101494
08:00−24ene25920 0.0 1014114
11:00−18e37840 0.0 1014394
14:00−13ene368119 0.0 1013617
17:00−12ne358345 0.0 1014681
20:00−18ene229329 0.0 101521
1 march, mon
mon123:00−21ese119222 0.0 101720
02:00−23nne119173 0.0 101820
05:00−23n129249 0.0 101920
08:00−24n12920 0.0 101920
11:00−18n12860 0.0 1019220
14:00−13w11810 0.0 1018340
17:00−12sw128424 0.0 1017350
20:00−17s23957 0.0 101647
2 march, tue
tue223:00−19s36974 0.0 1015123
02:00−19s399734 0.0 1013241
05:00−18s5129565 0.0 1010351
08:00−17s51193100 0.0 1007416
11:00−15s61292100 0.1 1006488
14:00−12s51191100 0.4 1004604
17:00−11s51192100 0.8 1003684
20:00−12s4994100 0.4 1003723
3 march, wed
wed323:00−13ssw3895100 0.9 1003532
02:00−14s3895100 0.2 1002335
05:00−15sse2596100 0.3 1002193
08:00−15sse249799 0.1 1002126
11:00−12s249299 0.2 1002302
14:00−9ssw2286100 0.1 1001487
17:00−9sw1289100 0.2 1001350
20:00−12ssw129799 0.1 100121